Stevensville, MD

2:43 PM EST on November 18, 2017 (GMT -0500)
Stevensville

Weather History for KW29 - October, 2011

Change the Weather History Date:

Wednesday, October 26, 2011

  Actual Average (KESN) Record (KESN)
Temperature  
Mean Temperature 62 °F -  
Max Temperature 66 °F 66 °F 75 °F (1963)
Min Temperature 57 °F 46 °F 29 °F (1952)
Degree Days  
Heating Degree Days 4    
Growing Degree Days 12 (Base 50)    
Moisture  
Dew Point 47 °F    
Average Humidity 63    
Maximum Humidity 88    
Minimum Humidity 52    
Precipitation  
Precipitation 0.00 in - - ()
Sea Level Pressure  
Sea Level Pressure 29.94 in    
Wind  
Wind Speed 7 mph (SSW)    
Max Wind Speed 12 mph    
Max Gust Speed 17 mph    
Visibility 10 miles    
Events      
Averages and records for this station are not official NWS values.
T = Trace of Precipitation, MM = Missing Value Source: NWS Daily Summary

Daily Weather History Graph

Daily Weather History Graph

Search for Another Location

Airport or City:

Trip Planner

Search our weather history database for the weather conditions in past years. The results will help you decide how hot, cold, wet, or windy it might be!

Date:

Astronomy

Oct. 26, 2011 Rise Set
Actual Time 7:25 AM EDT 6:12 PM EDT
Civil Twilight 6:58 AM EDT 6:39 PM EDT
Nautical Twilight 6:27 AM EDT 7:10 PM EDT
Astronomical Twilight 5:56 AM EDT 7:41 PM EDT
Moon 7:10 AM EDT (10/26) 5:53 PM EDT (10/26)
Length of Visible Light 11h 40m
Length of Day
10h 46m
Waning Crescent, 0% of the Moon is Illuminated
Oct 26
Waning Crescent
Oct 26
New
Nov 2
First Quarter
Nov 10
Full
Nov 18
Last Quarter

Hourly Weather History & Observations

Time (EDT) Temp. Dew Point Humidity Pressure Visibility Wind Dir Wind Speed Gust Speed Precip Events Conditions
12:07 AM 59.0 °F 46.4 °F 63% 30.07 in 10.0 mi SSW 4.6 mph - N/A   Clear
12:26 AM 59.0 °F 46.4 °F 63% 30.06 in 10.0 mi South 6.9 mph - N/A   Clear
12:46 AM 59.0 °F 44.6 °F 59% 30.06 in 10.0 mi SSW 5.8 mph - N/A   Clear
1:05 AM 59.0 °F 44.6 °F 59% 30.05 in 10.0 mi SSW 9.2 mph - N/A   Clear
1:24 AM 59.0 °F 44.6 °F 59% 30.05 in 10.0 mi SSW 8.1 mph - N/A   Clear
1:44 AM 59.0 °F 44.6 °F 59% 30.04 in 10.0 mi SSW 9.2 mph - N/A   Clear
2:03 AM 59.0 °F 44.6 °F 59% 30.04 in 10.0 mi SSW 8.1 mph - N/A   Clear
2:22 AM 59.0 °F 44.6 °F 59% 30.04 in 10.0 mi SSW 6.9 mph - N/A   Clear
2:42 AM 59.0 °F 44.6 °F 59% 30.03 in 10.0 mi South 6.9 mph - N/A   Clear
3:20 AM 59.0 °F 44.6 °F 59% 30.02 in 10.0 mi SSW 6.9 mph - N/A   Clear
3:40 AM 59.0 °F 44.6 °F 59% 30.01 in 10.0 mi SSW 8.1 mph - N/A   Clear
3:59 AM 57.2 °F 44.6 °F 63% 30.00 in 10.0 mi SSW 5.8 mph - N/A   Clear
4:18 AM 57.2 °F 44.6 °F 63% 29.99 in 10.0 mi SSW 6.9 mph - N/A   Clear
4:38 AM 57.2 °F 44.6 °F 63% 29.99 in 10.0 mi SSW 9.2 mph - N/A   Clear
4:57 AM 57.2 °F 44.6 °F 63% 29.98 in 10.0 mi SSW 9.2 mph - N/A   Clear
5:16 AM 59.0 °F 44.6 °F 59% 29.97 in 10.0 mi SSW 9.2 mph - N/A   Clear
5:36 AM 59.0 °F 44.6 °F 59% 29.96 in 10.0 mi SSW 11.5 mph 17.3 mph N/A   Clear
5:55 AM 59.0 °F 44.6 °F 59% 29.95 in 10.0 mi SSW 8.1 mph - N/A   Clear
6:14 AM 59.0 °F 44.6 °F 59% 29.95 in 10.0 mi SSW 10.4 mph - N/A   Clear
6:34 AM 59.0 °F 44.6 °F 59% 29.95 in 10.0 mi SSW 8.1 mph 16.1 mph N/A   Clear
6:53 AM 59.0 °F 44.6 °F 59% 29.94 in 10.0 mi SSW 11.5 mph - N/A   Clear
7:12 AM 59.0 °F 44.6 °F 59% 29.94 in 10.0 mi SSW 9.2 mph - N/A   Clear
7:32 AM 59.0 °F 44.6 °F 59% 29.93 in 10.0 mi SW 5.8 mph - N/A   Clear
7:51 AM 59.0 °F 44.6 °F 59% 29.93 in 10.0 mi SSW 5.8 mph - N/A   Clear
8:10 AM 59.0 °F 42.8 °F 55% 29.94 in 10.0 mi SW 3.5 mph - N/A   Clear
8:30 AM 59.0 °F 44.6 °F 59% 29.94 in 10.0 mi SW 3.5 mph - N/A   Clear
8:49 AM 60.8 °F 44.6 °F 55% 29.94 in 10.0 mi SW 9.2 mph - N/A   Scattered Clouds
9:08 AM 59.0 °F 44.6 °F 59% 29.95 in 10.0 mi SW 10.4 mph - N/A   Scattered Clouds
9:27 AM 60.8 °F 46.4 °F 59% 29.95 in 10.0 mi SW 8.1 mph - N/A   Clear
9:47 AM 62.6 °F 44.6 °F 52% 29.95 in 10.0 mi SW 5.8 mph - N/A   Clear
10:06 AM 62.6 °F 44.6 °F 52% 29.95 in 10.0 mi WSW 4.6 mph - N/A   Clear
10:25 AM 62.6 °F 46.4 °F 55% 29.94 in 10.0 mi SW 5.8 mph - N/A   Clear
10:45 AM 62.6 °F 44.6 °F 52% 29.94 in 10.0 mi WSW 5.8 mph - N/A   Clear
11:04 AM 62.6 °F 46.4 °F 55% 29.92 in 10.0 mi SSW 8.1 mph - N/A   Clear
11:23 AM 64.4 °F 46.4 °F 52% 29.92 in 10.0 mi SSW 6.9 mph - N/A   Clear
11:42 AM 64.4 °F 46.4 °F 52% 29.90 in 10.0 mi South 8.1 mph - N/A   Clear
12:02 PM 62.6 °F 46.4 °F 55% 29.88 in 10.0 mi SSE 8.1 mph - N/A   Clear
12:21 PM 64.4 °F 48.2 °F 56% 29.87 in 10.0 mi South 5.8 mph - N/A   Clear
12:40 PM 66.2 °F 50.0 °F 56% 29.85 in 10.0 mi South 10.4 mph - N/A   Clear
1:00 PM 64.4 °F 48.2 °F 56% 29.85 in 10.0 mi South 10.4 mph - N/A   Clear
1:19 PM 64.4 °F 50.0 °F 59% 29.85 in 10.0 mi South 8.1 mph - N/A   Scattered Clouds
1:27 PM 64.4 °F 50.0 °F 59% 29.85 in 10.0 mi Calm Calm - N/A   Mostly Cloudy
1:58 PM 59.0 °F 53.6 °F 82% 29.87 in 3.0 mi NNW 5.8 mph - N/A   Overcast
2:17 PM 59.0 °F 55.4 °F 88% 29.87 in 7.0 mi WNW 3.5 mph - N/A   Overcast
2:36 PM 59.0 °F 53.6 °F 82% 29.85 in 5.0 mi WNW 3.5 mph - N/A   Overcast
2:55 PM 59.0 °F 53.6 °F 82% 29.86 in 10.0 mi West 5.8 mph - N/A   Mostly Cloudy
3:15 PM 59.0 °F 55.4 °F 88% 29.83 in 7.0 mi WSW 3.5 mph - N/A   Overcast
3:34 PM 59.0 °F 55.4 °F 88% 29.83 in 10.0 mi WNW 8.1 mph - N/A   Mostly Cloudy
3:53 PM 60.8 °F 55.4 °F 82% 29.84 in 10.0 mi WSW 3.5 mph - N/A   Mostly Cloudy
4:13 PM 60.8 °F 55.4 °F 82% 29.85 in 10.0 mi SW 3.5 mph - N/A   Overcast
4:32 PM 59.0 °F 55.4 °F 88% 29.82 in 10.0 mi South 4.6 mph - N/A   Overcast
4:51 PM 60.8 °F 55.4 °F 82% 29.81 in 10.0 mi SW 4.6 mph - N/A   Overcast
5:11 PM 60.8 °F 55.4 °F 82% 29.81 in 10.0 mi ESE 3.5 mph - N/A   Scattered Clouds
5:30 PM 60.8 °F 55.4 °F 82% 29.82 in 10.0 mi Calm Calm - N/A   Mostly Cloudy
5:49 PM 60.8 °F 55.4 °F 82% 29.81 in 10.0 mi Calm Calm - N/A   Overcast
6:08 PM 59.0 °F 57.2 °F 94% 29.81 in 10.0 mi Calm Calm - N/A   Mostly Cloudy
6:28 PM 59.0 °F 57.2 °F 94% 29.81 in 10.0 mi Calm Calm - N/A   Scattered Clouds
6:47 PM 57.2 °F 57.2 °F 100% 29.81 in 10.0 mi Calm Calm - N/A   Clear
7:06 PM 57.2 °F 57.2 °F 100% 29.81 in 10.0 mi Calm Calm - N/A   Clear
7:26 PM 55.4 °F 55.4 °F 100% 29.81 in 5.0 mi Calm Calm - N/A   Scattered Clouds
7:45 PM 55.4 °F 55.4 °F 100% 29.81 in 7.0 mi Calm Calm - N/A   Mostly Cloudy
8:04 PM 55.4 °F 55.4 °F 100% 29.80 in 7.0 mi Calm Calm - N/A   Scattered Clouds
8:24 PM 55.4 °F 55.4 °F 100% 29.80 in 5.0 mi Calm Calm - N/A   Scattered Clouds
8:43 PM 53.6 °F 53.6 °F 100% 29.80 in 5.0 mi ESE 3.5 mph - N/A   Scattered Clouds
9:02 PM 53.6 °F 53.6 °F 100% 29.80 in 4.0 mi ESE 3.5 mph - N/A   Clear
9:21 PM 55.4 °F 55.4 °F 100% 29.80 in 5.0 mi ESE 3.5 mph - N/A   Scattered Clouds
10:00 PM 55.4 °F 55.4 °F 100% 29.80 in 7.0 mi SSE 3.5 mph - N/A   Mostly Cloudy
10:19 PM 55.4 °F 55.4 °F 100% 29.79 in 7.0 mi Calm Calm - N/A   Mostly Cloudy
10:39 PM 55.4 °F 55.4 °F 100% 29.79 in 7.0 mi Calm Calm - N/A   Scattered Clouds
10:58 PM 55.4 °F 55.4 °F 100% 29.79 in 7.0 mi Calm Calm - N/A   Mostly Cloudy
11:37 PM 55.4 °F 55.4 °F 100% 29.78 in 5.0 mi Calm Calm - N/A   Clear
11:56 PM 55.4 °F 55.4 °F 100% 29.76 in 7.0 mi Calm Calm - N/A   Scattered Clouds